| time (UTC) | temp F | wind direction | speed knots | gust knots | rain 1hr in | rain 24hr in | rain mn in | humidity % | barometer mb |
| 20260510063049 | 54 | 137 | 0.9 | 2.6 | 0.00 | 0.67 | 0.06 | 96 | 1011.8 |
| 20260510061602 | 53 | 143 | 0.0 | 2.6 | 0.00 | 0.67 | 0.06 | 96 | 1011.7 |
| 20260510060101 | 53 | 180 | 0.0 | 1.7 | 0.00 | 0.67 | 0.06 | 96 | 1011.7 |
| 20260510054606 | 52 | 196 | 0.0 | 0.0 | 0.00 | 0.67 | 0.06 | 96 | 1011.7 |
| 20260510053104 | 53 | 196 | 0.0 | 0.0 | 0.00 | 0.67 | 0.06 | 96 | 1011.8 |
| 20260510051546 | 53 | 205 | 0.0 | 2.6 | 0.00 | 0.67 | 0.06 | 96 | 1011.6 |
| 20260510050031 | 52 | 206 | 0.0 | 0.0 | 0.00 | 0.67 | 0.06 | 96 | 1011.7 |
| 20260510044624 | 52 | 206 | 0.0 | 0.0 | 0.01 | 0.67 | 0.06 | 96 | 1011.6 |
| 20260510043127 | 52 | 206 | 0.0 | 1.7 | 0.01 | 0.67 | 0.06 | 96 | 1011.7 |
| 20260510041518 | 52 | 191 | 0.9 | 2.6 | 0.01 | 0.67 | 0.06 | 96 | 1011.7 |
| 20260510040044 | 52 | 217 | 0.9 | 2.6 | 0.01 | 0.67 | 0.06 | 96 | 1011.7 |
| 20260510034537 | 52 | 209 | 1.7 | 3.5 | 0.00 | 0.66 | 0.06 | 96 | 1011.8 |
| 20260510033124 | 52 | 211 | 0.9 | 4.3 | 0.00 | 0.66 | 0.06 | 96 | 1011.9 |
| 20260510031619 | 51 | 210 | 0.9 | 3.5 | 0.00 | 0.66 | 0.06 | 96 | 1011.9 |
| 20260510030003 | 51 | 110 | 0.0 | 0.0 | 0.00 | 0.66 | 0.06 | 95 | 1012.0 |
| 20260510024541 | 52 | 111 | 0.0 | 0.0 | 0.00 | 0.66 | 0.06 | 95 | 1012.0 |
| 20260510023114 | 52 | 111 | 0.0 | 0.0 | 0.00 | 0.66 | 0.06 | 95 | 1012.1 |
| 20260510021613 | 52 | 111 | 0.0 | 0.0 | 0.00 | 0.66 | 0.06 | 96 | 1012.1 |
| 20260510020115 | 52 | 111 | 0.0 | 0.0 | 0.00 | 0.66 | 0.06 | 95 | 1012.0 |
| 20260510014620 | 53 | 110 | 0.0 | 0.0 | 0.00 | 0.66 | 0.06 | 95 | 1012.1 |
| 20260510013137 | 53 | 110 | 0.0 | 0.0 | 0.00 | 0.66 | 0.06 | 95 | 1012.0 |
| 20260510011505 | 53 | 110 | 0.0 | 0.0 | 0.00 | 0.66 | 0.06 | 95 | 1012.4 |
| 20260510010058 | 54 | 110 | 0.0 | 0.0 | 0.00 | 0.66 | 0.06 | 96 | 1012.6 |
| 20260510004558 | 54 | 110 | 0.0 | 0.0 | 0.00 | 0.66 | 0.06 | 95 | 1012.7 |
| 20260510003113 | 54 | 110 | 0.0 | 0.0 | 0.00 | 0.66 | 0.06 | 95 | 1013.0 |
| 20260510001625 | 55 | 110 | 0.0 | 0.0 | 0.01 | 0.66 | 0.06 | 95 | 1013.3 |
| 20260510000009 | 55 | 110 | 0.0 | 0.0 | 0.01 | 0.66 | 0.06 | 95 | 1013.4 |
| 20260509234506 | 55 | 110 | 0.0 | 0.0 | 0.02 | 0.66 | 0.06 | 95 | 1013.7 |
| 20260509233106 | 55 | 110 | 0.0 | 0.0 | 0.03 | 0.65 | 0.05 | 95 | 1013.9 |
| 20260509231631 | 55 | 110 | 0.0 | 0.0 | 0.05 | 0.65 | 0.05 | 95 | 1014.0 |
| 20260509230026 | 55 | 110 | 0.0 | 0.0 | 0.06 | 0.65 | 0.05 | 95 | 1014.1 |
| 20260509224534 | 55 | 110 | 0.0 | 0.0 | 0.05 | 0.64 | 0.03 | 95 | 1014.2 |
| 20260509223136 | 55 | 110 | 0.0 | 0.0 | 0.05 | 0.63 | 0.02 | 95 | 1014.2 |
| 20260509221533 | 55 | 110 | 0.0 | 0.0 | 0.03 | 0.61 | 0.00 | 95 | 1014.2 |
| 20260509220002 | 55 | 110 | 0.0 | 0.0 | 0.02 | 0.59 | 0.59 | 95 | 1014.0 |
| 20260509214604 | 55 | 109 | 0.0 | 0.0 | 0.03 | 0.59 | 0.59 | 95 | 1013.8 |
| 20260509213013 | 55 | 108 | 0.0 | 0.0 | 0.04 | 0.57 | 0.57 | 95 | 1013.8 |
| 20260509211520 | 55 | 108 | 0.0 | 0.0 | 0.03 | 0.56 | 0.56 | 94 | 1013.6 |
| 20260509210101 | 55 | 108 | 0.0 | 0.0 | 0.02 | 0.56 | 0.56 | 94 | 1013.6 |
| 20260509204625 | 55 | 108 | 0.0 | 0.0 | 0.02 | 0.56 | 0.56 | 94 | 1013.5 |
| 20260509203129 | 55 | 108 | 0.0 | 0.0 | 0.01 | 0.54 | 0.54 | 94 | 1013.3 |
| 20260509201504 | 55 | 33 | 0.0 | 0.0 | 0.01 | 0.54 | 0.54 | 94 | 1012.9 |
| 20260509200131 | 55 | 34 | 0.0 | 1.7 | 0.02 | 0.54 | 0.54 | 94 | 1012.6 |
| 20260509194510 | 55 | 33 | 0.0 | 1.7 | 0.03 | 0.54 | 0.54 | 94 | 1012.3 |
| 20260509193102 | 55 | 34 | 0.0 | 2.6 | 0.05 | 0.54 | 0.54 | 94 | 1012.3 |
| 20260509191610 | 55 | 30 | 0.0 | 3.5 | 0.07 | 0.54 | 0.54 | 93 | 1011.9 |
| 20260509190108 | 55 | 63 | 1.7 | 5.2 | 0.09 | 0.53 | 0.53 | 93 | 1011.4 |
| 20260509184636 | 55 | 30 | 2.6 | 8.7 | 0.14 | 0.51 | 0.51 | 93 | 1010.9 |
| 20260509183056 | 55 | 20 | 3.5 | 7.8 | 0.17 | 0.49 | 0.49 | 92 | 1011.3 |
| 20260509181540 | 56 | 34 | 2.6 | 4.3 | 0.23 | 0.46 | 0.46 | 92 | 1012.0 |
| 20260509180034 | 56 | 24 | 1.7 | 7.0 | 0.31 | 0.43 | 0.43 | 91 | 1012.1 |
| 20260509174551 | 57 | 78 | 0.0 | 0.0 | 0.30 | 0.36 | 0.36 | 91 | 1012.8 |
| 20260509173011 | 57 | 78 | 0.0 | 0.0 | 0.30 | 0.32 | 0.32 | 90 | 1013.0 |
| 20260509171557 | 58 | 78 | 0.0 | 0.0 | 0.23 | 0.23 | 0.23 | 89 | 1013.1 |
| 20260509170056 | 60 | 78 | 0.0 | 0.9 | 0.12 | 0.12 | 0.12 | 89 | 1013.3 |
| 20260509164635 | 60 | 78 | 0.0 | 0.9 | 0.06 | 0.06 | 0.06 | 88 | 1013.3 |
| 20260509163002 | 61 | 78 | 0.0 | 2.6 | 0.02 | 0.02 | 0.02 | 86 | 1013.0 |
| 20260509161526 | 61 | 111 | 0.9 | 5.2 | 0.00 | 0.00 | 0.00 | 84 | 1012.5 |
| 20260509160018 | 61 | 49 | 1.7 | 6.1 | 0.00 | 0.00 | 0.00 | 83 | 1011.9 |
| 20260509154536 | 62 | 43 | 2.6 | 7.8 | 0.00 | 0.00 | 0.00 | 82 | 1011.4 |
| 20260509153045 | 62 | 48 | 2.6 | 6.1 | 0.00 | 0.00 | 0.00 | 82 | 1011.9 |
| 20260509151513 | 63 | 23 | 1.7 | 4.3 | 0.00 | 0.00 | 0.00 | 80 | 1012.2 |
| 20260509150014 | 63 | 47 | 0.9 | 5.2 | 0.00 | 0.00 | 0.00 | 78 | 1012.6 |
| 20260509144543 | 64 | 46 | 0.0 | 1.7 | 0.00 | 0.00 | 0.00 | 78 | 1013.4 |
| 20260509143136 | 64 | 46 | 0.0 | 5.2 | 0.00 | 0.00 | 0.00 | 78 | 1013.3 |
| 20260509141600 | 64 | 18 | 1.7 | 6.1 | 0.00 | 0.00 | 0.00 | 78 | 1012.8 |
| 20260509140121 | 64 | 54 | 0.9 | 4.3 | 0.00 | 0.00 | 0.00 | 79 | 1013.1 |
| 20260509134626 | 64 | 53 | 2.6 | 6.1 | 0.00 | 0.00 | 0.00 | 77 | 1013.0 |
| 20260509133137 | 64 | 53 | 1.7 | 6.1 | 0.00 | 0.00 | 0.00 | 82 | 1012.9 |
| 20260509131508 | 64 | 30 | 1.7 | 6.1 | 0.00 | 0.00 | 0.00 | 82 | 1013.2 |
| 20260509130050 | 64 | 355 | 0.0 | 3.5 | 0.00 | 0.00 | 0.00 | 83 | 1013.4 |
| 20260509124546 | 63 | 32 | 0.0 | 4.3 | 0.00 | 0.00 | 0.00 | 85 | 1013.5 |
| 20260509123138 | 62 | 36 | 0.9 | 3.5 | 0.00 | 0.00 | 0.00 | 85 | 1013.7 |
| 20260509121627 | 63 | 60 | 0.9 | 2.6 | 0.00 | 0.00 | 0.00 | 84 | 1014.1 |
| 20260509120038 | 63 | 64 | 0.9 | 3.5 | 0.00 | 0.00 | 0.00 | 82 | 1014.5 |
| 20260509114605 | 63 | 103 | 0.0 | 6.1 | 0.00 | 0.00 | 0.00 | 81 | 1014.5 |
| 20260509113020 | 63 | 56 | 2.6 | 7.8 | 0.00 | 0.00 | 0.00 | 80 | 1014.3 |
| 20260509111626 | 64 | 32 | 4.3 | 7.8 | 0.00 | 0.00 | 0.00 | 78 | 1014.3 |
| 20260509110003 | 65 | 32 | 1.7 | 5.2 | 0.00 | 0.00 | 0.00 | 75 | 1014.3 |
| 20260509104510 | 65 | 40 | 1.7 | 6.1 | 0.00 | 0.00 | 0.00 | 78 | 1014.4 |
| 20260509103018 | 64 | 59 | 0.9 | 5.2 | 0.00 | 0.00 | 0.00 | 79 | 1014.6 |
| 20260509101524 | 64 | 66 | 1.7 | 6.1 | 0.00 | 0.00 | 0.00 | 79 | 1014.7 |
| 20260509100028 | 64 | 91 | 2.6 | 7.0 | 0.00 | 0.00 | 0.00 | 79 | 1014.5 |
| 20260509094614 | 64 | 349 | 2.6 | 7.8 | 0.00 | 0.00 | 0.00 | 78 | 1014.4 |
| 20260509093040 | 64 | 55 | 1.7 | 5.2 | 0.00 | 0.00 | 0.00 | 78 | 1014.3 |
| 20260509091526 | 65 | 56 | 2.6 | 6.1 | 0.00 | 0.00 | 0.00 | 78 | 1014.2 |
| 20260509090048 | 65 | 31 | 2.6 | 7.0 | 0.00 | 0.00 | 0.00 | 79 | 1014.1 |
| 20260509084552 | 64 | 57 | 1.7 | 6.1 | 0.00 | 0.00 | 0.00 | 81 | 1014.1 |
| 20260509083102 | 64 | 22 | 0.9 | 4.3 | 0.00 | 0.00 | 0.00 | 83 | 1014.3 |
| 20260509081538 | 63 | 40 | 1.7 | 3.5 | 0.00 | 0.00 | 0.00 | 83 | 1014.5 |
| 20260509080031 | 62 | 38 | 0.9 | 3.5 | 0.00 | 0.00 | 0.00 | 83 | 1014.6 |
| 20260509074608 | 61 | 49 | 0.0 | 1.7 | 0.00 | 0.00 | 0.00 | 85 | 1014.8 |
| 20260509073107 | 60 | 49 | 0.0 | 0.9 | 0.00 | 0.00 | 0.00 | 86 | 1014.8 |
| 20260509071512 | 58 | 49 | 0.0 | 3.5 | 0.00 | 0.00 | 0.00 | 87 | 1014.9 |
| 20260509070056 | 58 | 248 | 0.0 | 0.0 | 0.00 | 0.00 | 0.00 | 89 | 1014.8 |
| 20260509064521 | 56 | 248 | 0.0 | 0.9 | 0.00 | 0.00 | 0.00 | 91 | 1014.9 |